Greenwood, MS

10:21 AM CDT on July 20, 2017 (GMT -0500)
Greenwood-Leflore

Weather History for KGWO - December, 2012

Change the Weather History Date:

Monday, December 24, 2012

  Actual Average Record
Temperature  
Mean Temperature 55 °F 44 °F  
Max Temperature 63 °F 54 °F 80 °F (1955)
Min Temperature 46 °F 34 °F 5 °F (1989)
Degree Days  
Heating Degree Days 10 21  
Month to date heating degree days 247 450  
Since 1 July heating degree days 844 918  
Cooling Degree Days 0 0  
Month to date cooling degree days 11 0  
Year to date cooling degree days 2252 2159  
Growing Degree Days 4 (Base 50)    
Moisture  
Dew Point 53 °F    
Average Humidity 84    
Maximum Humidity 100    
Minimum Humidity 67    
Precipitation  
Precipitation 0.01 in 0.18 in 3.65 in (1973)
Month to date precipitation 4.75 4.53  
Year to date precipitation 41.94 50.65  
Sea Level Pressure  
Sea Level Pressure 29.88 in    
Wind  
Wind Speed 7 mph (WSW)    
Max Wind Speed 17 mph    
Max Gust Speed 22 mph    
Visibility 9 miles    
Events Rain    
T = Trace of Precipitation, MM = Missing Value Source: NWS Daily Summary

Daily Weather History Graph

Daily Weather History Graph

Search for Another Location

Airport or City:

Trip Planner

Search our weather history database for the weather conditions in past years. The results will help you decide how hot, cold, wet, or windy it might be!

Date:

Astronomy

Dec. 24, 2012 Rise Set
Actual Time 7:02 AM CST 4:58 PM CST
Civil Twilight 6:34 AM CST 5:25 PM CST
Nautical Twilight 6:03 AM CST 5:57 PM CST
Astronomical Twilight 5:33 AM CST 6:27 PM CST
Moon 2:22 PM CST (12/24) 3:44 AM CST (12/24)
Length of Visible Light 10h 51m
Length of Day
9h 56m
Waxing Gibbous, 88% of the Moon is Illuminated
Dec 24
Waxing Gibbous
Dec 28
Full
Jan 4
Last Quarter
Jan 11
New
Jan 18
First Quarter

Hourly Weather History & Observations

Time (CST) Temp. Dew Point Humidity Pressure Visibility Wind Dir Wind Speed Gust Speed Precip Events Conditions
12:33 AM 60.8 °F 55.4 °F 82% 29.84 in 10.0 mi South 13.8 mph - N/A   Mostly Cloudy
12:53 AM 60.1 °F 55.9 °F 86% 29.84 in 10.0 mi SSW 12.7 mph - N/A   Overcast
1:08 AM 60.8 °F 55.4 °F 82% 29.84 in 10.0 mi SSW 11.5 mph - N/A   Overcast
1:49 AM 60.8 °F 57.2 °F 88% 29.83 in 10.0 mi SSW 12.7 mph 21.9 mph 0.01 in Rain Light Rain
1:53 AM 61.0 °F 57.0 °F 87% 29.83 in 10.0 mi SSW 12.7 mph - 0.01 in   Mostly Cloudy
2:19 AM 59.0 °F 57.2 °F 94% 29.82 in 10.0 mi SSW 11.5 mph - 0.00 in   Overcast
2:53 AM 60.1 °F 57.0 °F 90% 29.82 in 10.0 mi SSW 13.8 mph - 0.00 in   Overcast
3:06 AM 60.8 °F 57.2 °F 88% 29.82 in 10.0 mi SSW 11.5 mph - N/A   Overcast
3:53 AM 60.1 °F 57.0 °F 90% 29.81 in 10.0 mi SSW 9.2 mph - N/A   Mostly Cloudy
4:53 AM 60.1 °F 57.9 °F 93% 29.81 in 10.0 mi SSW 8.1 mph - N/A   Mostly Cloudy
5:28 AM 55.4 °F 55.4 °F 100% 29.81 in 10.0 mi SSW 6.9 mph - N/A   Scattered Clouds
5:53 AM 59.0 °F 57.0 °F 93% 29.82 in 10.0 mi WSW 5.8 mph - N/A   Scattered Clouds
6:16 AM 59.0 °F 57.2 °F 94% 29.83 in 10.0 mi WSW 5.8 mph - N/A   Mostly Cloudy
6:29 AM 59.0 °F 57.2 °F 94% 29.84 in 10.0 mi WSW 5.8 mph - N/A   Scattered Clouds
6:53 AM 57.9 °F 55.9 °F 93% 29.84 in 10.0 mi WSW 5.8 mph - N/A   Clear
7:53 AM 55.9 °F 53.1 °F 90% 29.87 in 10.0 mi West 4.6 mph - N/A   Clear
8:53 AM 55.9 °F 46.9 °F 72% 29.90 in 10.0 mi West 8.1 mph - N/A   Clear
9:44 AM 55.4 °F 51.8 °F 88% 29.93 in 10.0 mi Variable 4.6 mph - N/A   Mostly Cloudy
9:53 AM 57.0 °F 51.1 °F 81% 29.94 in 10.0 mi West 6.9 mph - N/A   Mostly Cloudy
10:53 AM 55.9 °F 51.1 °F 84% 29.93 in 10.0 mi NNW 5.8 mph - N/A   Overcast
11:53 AM 57.0 °F 53.1 °F 87% 29.92 in 9.0 mi NW 4.6 mph - N/A   Overcast
12:53 PM 57.9 °F 54.0 °F 87% 29.91 in 10.0 mi SSW 4.6 mph - N/A   Overcast
1:14 PM 59.0 °F 53.6 °F 82% 29.90 in 10.0 mi South 4.6 mph - N/A   Overcast
1:42 PM 60.8 °F 53.6 °F 77% 29.89 in 10.0 mi Calm Calm - N/A   Mostly Cloudy
1:53 PM 61.0 °F 54.0 °F 78% 29.88 in 10.0 mi Variable 4.6 mph - N/A   Mostly Cloudy
2:53 PM 61.0 °F 53.1 °F 75% 29.88 in 10.0 mi South 3.5 mph - N/A   Partly Cloudy
3:20 PM 62.6 °F 53.6 °F 72% 29.88 in 10.0 mi West 3.5 mph - N/A   Mostly Cloudy
3:46 PM 62.6 °F 53.6 °F 72% 29.89 in 10.0 mi West 4.6 mph - N/A   Scattered Clouds
3:53 PM 62.1 °F 52.0 °F 70% 29.89 in 10.0 mi West 3.5 mph - N/A   Partly Cloudy
4:53 PM 59.0 °F 53.1 °F 81% 29.90 in 10.0 mi Calm Calm - N/A   Partly Cloudy
5:53 PM 55.0 °F 51.1 °F 86% 29.91 in 9.0 mi NNW 3.5 mph - N/A   Scattered Clouds
6:04 PM 51.8 °F 50.0 °F 94% 29.91 in 9.0 mi North 3.5 mph - N/A   Mostly Cloudy
6:21 PM 53.6 °F 50.0 °F 88% 29.92 in 10.0 mi NNW 5.8 mph - N/A   Scattered Clouds
6:53 PM 50.0 °F 48.9 °F 96% 29.92 in 8.0 mi NNE 6.9 mph - N/A   Clear
7:53 PM 46.9 °F 46.0 °F 97% 29.93 in 5.0 mi NNE 4.6 mph - N/A   Clear
8:53 PM 48.0 °F 46.9 °F 96% 29.94 in 6.0 mi North 5.8 mph - N/A   Clear
9:53 PM 48.0 °F 46.9 °F 96% 29.94 in 6.0 mi NNE 8.1 mph - N/A   Clear
10:53 PM 50.0 °F 48.0 °F 93% 29.93 in 7.0 mi NNE 6.9 mph - N/A   Mostly Cloudy
11:53 PM 51.1 °F 48.9 °F 92% 29.94 in 7.0 mi NNE 8.1 mph - N/A   Overcast